Погода в Лиски

Погода в Лиски : погода сейчас, прогноз погоды и архив. Всё, что Вы хотите узнать о погоде в Лиски!

Поиск расширенной информации на нашем сайте:

Другие новости

Новости СМИ2

Главная страница сайта

Новости сайта

03.07.2017

Напоминаем, что на нашем специализированном сайте Метеоцентр.Азия вы можете получить высокодетализированные автоматические прогнозы погоды по пунктам России, СНГ и мира в авиационном формате (включающие направление и скорость ветра, видимость, явления погоды, количество и форму облачности, нижнюю и верхнюю границу облачности).


Погода в Лиски - сегодня

Время (UTC), дата Ветер
(°,м/с) 
Видим.   Явления Облачность Т
(°С)
Тd
(°С)
f(%) Тe
(°С)
Pmin
(гПа)
dP
(гПа)
Po
(мм)
O2
(г/м3)
Тmin Tmax R s Состояние
почвы
15 18.07.18 240 (ЮЗ) 20000 м  гроза без осадков{ливн. осадки}  9/9 600 м кучево-дожд. 
[Cb cap]
+22.2 +18.6 80 +38  997.9  0.9  739  271    +24     
21 18.07.18 220 (ЮЗ) 20000 м    8/8 800 м 
[Sc]
+19.9 +17.6 87 +35  999.2  0.2  740  274           
06 19.07.18 210 (ЮЗ) 20000 м    10/10 570 м кучево-дожд. 
[Cb cap]
+20.8 +17.6 82 +35  1000.9  0.6  741  273           
09 19.07.18 230 (ЮЗ) 20000 м    8/6 750 м верхняя 
[Sc|Ci fib]
+25.2 +17.6 63 +39  1000.7  741  269           
15 19.07.18 200 (Ю) 20000 м  {ливн. осадки}  8/6 570 м кучево-дожд., верхняя 
[Cb cap|Ci fib]
+26.4 +16.8 56 +39  1001.2  0.1  741  269    +27.4     
21 19.07.18 030 (СВ) 20000 м    ясно 
+19.8 +18 89 +36  1002.9  0.8  742  275           
00 20.07.18 210 (ЮЗ) 10 км    ясно 
+19 +16.9 88 +33  1002.6  -0.3  742  276           
06 20.07.18 150 (ЮВ) 20000 м    8/6 800 м средняя, верхняя 
[Sc|Ac trans|Ci fib]
+22.6 +18.1 76 +37  1003  742  272           
09 20.07.18 170 (Ю) 20000 м    9/8 700 м кучево-дожд., верхняя 
[Cb cap|Ci fib]
+27.8 +17 52 +40  1002.6  -0.2  742  268           
12 20.07.18 170 (Ю) 20000 м    6/4 600 м кучево-дожд., верхняя 
[Cb cap|Ci fib]
+28.7 +15.2 44 +38  1002.3  -0.2  742  267           
15 20.07.18 тихо () {10}  10 км  гроза, ливневой дождь  10/10 600 м кучево-дожд. 
[Cb cap]
+21 +19.4 91 +39  1002.9  0.2  742  273    +29.7     
21 20.07.18 020 (С) 10 км    9/9 750 м 
[Sc]
+20 +18.7 92 +36  1003.6  -0.1  743  274           
06 21.07.18 тихо ()   10 км    9/9 800 м 
[Sc]
+21.7 +19.3 86 +39  1003.9  0.6  743  273           
09 21.07.18 350 (С) 20000 м    8/8 800 м 
[Sc]
+26.8 +18.5 60 +42  1003.6  -0.1  743  268           
15 21.07.18 090 (В) 20000 м  {ливн. осадки}  9/9 800 м 
[Sc]
+25.2 +18.3 66 +40  1003.5  0.3  743  270    +27.8  0.0     
18 21.07.18 230 (ЮЗ) 20000 м  {ливн. осадки}  4/4 600 м 
[Sc]
+22.8 +19 79 +40  1004.1  0.5  743  272           
21 21.07.18 350 (С) 10 км    ясно 
+20 +18.2 89 +35  1004.4  0.2  743  275           
00 22.07.18 тихо ()   4000 м  дымка  ясно 
+18 +17 94 +31  1004.3  -0.2  743  277           
06 22.07.18 150 (ЮВ) 20000 м  {туман}  6/0 средняя, верхняя 
[Ac trans|Ci fib]
+24.3 +18.6 71 +40  1004.4  0.1  743  271           
18 22.07.18 тихо ()   20000 м    8/8 570 м кучево-дожд. 
[Cb cap]
+22.2 +18.3 79 +37  1004.7  744  273           
21 22.07.18 тихо ()   10 км    6/6 570 м кучево-дожд. 
[Cb cap]
+19.9 +16.6 81 +32  1005  0.1  744  276           
00 23.07.18 тихо ()   10 км    ясно 
+18.6 +16.4 87 +30  1004.7  -0.3  743  277           
03 23.07.18 тихо ()   4000 м  дымка  8/8 800 м 
[Sc]
+18 +16.7 92 +30  1004.9  0.2  744  277  +17.5         
06 23.07.18 170 (Ю) 10 км    9/6 800 м средняя, верхняя 
[Sc|Ac trans|Ci fib]
+22.3 +18.2 78 +37  1005.2  0.5  748  274           
09 23.07.18 140 (ЮВ) 20000 м    9/8 720 м кучево-дожд., верхняя 
[Cb cap|Ci fib]
+26 +18.1 62 +41  1005  744  270           
Время (UTC), дата Ветер
(°,м/с) 
Видим.   Явления Облачность Т
(°С)
Тd
(°С)
f(%) Тe
(°С)
Pmin
(гПа)
dP
(гПа)
Po
(мм)
O2
(г/м3)
Тmin Tmax R s Состояние
почвы

Для получения пояснительной информации подведите курсор к названию столбца.

ПОГОДА в Лиски - архив

Всё, что Вы хотите узнать о погоде в Лиски - удобно и подробно!

Выберите нужную дату (начиная с 1 января 2015* года) и нажмите кнопку "Найти".
Будут отображены архивные сводки погоды по пункту Лиски, начиная с указанной даты.


Отображать данные в формате CSV (для использования в таблицах Excel)


Внимание! Наш архив погоды предназначен исключительно для личного некоммерческого использования в познавательных целях. Если Вам необходимы официальные справки о состоянии погоды (для производственных, юридических, коммерческих и т.п. целей), обращайтесь в органы Росгидромета.

*Примечание: данная дата относится к архиву по метеостанциям СССР (Россия, СНГ, Балтия).
Архив по метеостанциям Зарубежной Европы и Азии (кроме Китая) хранится 10 дней, по другим регионам земного шара (Китай, Африка, Америка, Австралия, Океания) - 1 день.

Лиски - район местоположения метеостанции


Название, широта, долгота, высота метеостанции:
Лиски 51°ш. 39.5°д. 115 м над ур. моря [Российская Федерация]

Дополнительная информация

В oтличие oт бoльшинства пoгoдных сайтoв мы публикуем пoдрoбную метеoинфoрмацию в детальнoм прoфессиoнальнoм фoрмате.

Характеристики температуры и влажнoсти вoздуха измеряются на высoте 2 м в тени вдали oт зданий и деревьев.
Скoрoсть ветра измеряется на высoте 10 м (на урoвне рoста челoвека скoрoсть ветра ниже в 1.5-2 раза). Если метеoстанция нахoдится в гoрoде или в лесу, тo скoрoсть ветра занижена на 2-4 м/с пo сравнению с oткрытым местoм. Скoрoсть ветра над акватoриями крупных рек и oзёр, а также на вершинах хoлмoв на 2-5 м/с выше, чем в oбычных услoвиях.
Атмoсфернoе давление в разных тoчках местнoсти мoжет значительнo oтличаться oт давления на метеoстанции, в зависимoсти oт услoвий рельефа (при пoдъёме на 10 м давление пoнижается примернo на 1 мм рт.ст.).